Showing default

KUIPER-00414, 68929

Orbit data source: Space-Track

KUIPER-00414, 68929 is a payload satellite owned by Kuiper Systems (US) in LEO that was launched on Thu, 30 Apr 2026 UTC via an ARIANE 64 launch vehicle from the French Guiana (FRGUI). Payload-class satellites include a variety of spacecraft equipped with specific instruments for various scientific and technological missions. These include communications satellites like Starlink; space stations such as the ISS; scientific satellites like the Hubble; Earth observation satellites from companies like Planet Labs, Umbra, and HawkEye 360; GPS; miniature CubeSats for education and research; and military/defense satellites.

Loading next visibility...
Identifier
68929, 2026-098L
Orbit
LEO
Country
Flag of USUS
Related business
Manufacturer
Kuiper Systems
Mission
Operational spacecraft
Bus & Motor
KUIPER, Unknown motor
Mass
~490 kg wet, ~490 kg dry
Launch date (UTC)
2026-04-30 (2 months ago)
Launch vehicle
ARIANE 64
Launch site
French Guiana (FRGUI)
Object type
Payload
Rocket body
Debris
Shape & HBR
Unknown shape, 3.4 m
Radar Cross Section
Large (>1 m²)

Expand to show TLE details & history
Last TLE update: 10 hours ago

TLE from 10 hours ago
0 KUIPER-00414
1 68929U 26098L   26171.41668980 -.00029738  00000-0 -30211-2 0  9998
2 68929  51.8985  56.7677 0019877 156.8497 350.2791 14.90101317  5045
Epoch: 2026-06-20T10:00Z
TLE epoch observation values (Epoch: 2026-06-20T10:00:01.998Z)
Latitude
25.38454°
Longitude
156.40916°
Altitude
584.846 km
Speed
7.579 km/s
True Right ascension
14h 20m 11s
True Declination
25° 14' 54"
Sunlit
Object was in daylight at epoch
Visualization orbit readout
Latitude
Unknown
Longitude
Unknown
Altitude
Unknown
Speed
Unknown
Apparent Right ascension
Unknown
Apparent Declination
Unknown
Sunlit
N/A
Visualization observer readout
Local Sidereal Time
07:20:52
Azimuth
Unknown
Elevation
Unknown
Doppler factor
Unknown
Orbital elements
Apogee altitude
611.939 km
Perigee altitude
584.206 km
Semi-major axis
6,976.21 km
Eccentricity
0.00199
Inclination
51.8985°
RAAN
56.7677°
Arg. of periapsis
156.8497°
True anomaly
350.24055°
Mean anomaly
350.2791°
Eccentric anomaly
350.25983°
Mean motion
3.72489 °/min
Orbital period
96.65 mins
BSTAR
-0.0030211
Loading maneuver chart data...
Computing Atmospheric mass density...
Loading historical data...
Loading historical data...
Loading historical data...
Loading historical data...
Loading historical data...
Loading historical data...
Loading historical data...

Documentation

Showing up to 5 results
|